Location: London
(51.5074°N, 0.1278°W)
Time: 22:08:14
(UTC+01:00)

DELFI C3 - Pass Details

Date: 04 October 2020
Orbit: 535 x 549 km, 97.4° (Epoch: 22 October)

Event Time Altitude Azimuth Distance (km) Brightness Sun altitude
Exits shadow 21:09:33 35° 226° (SW) 899 ? -25.0°
Maximum altitude 21:10:30 41° 262° (W) 799 ? -25.1°
Drops below altitude 10° 21:14:16 10° 334° (NNW) 1,832 ? -25.6°
Sets 21:16:30 0° 342° (NNW) 2,733 ? -25.9°
